EZY243 ENBR-ENGM

Flight info

Callsign EZY243
Flight time N/A
Altitude 29000
Route GOKAB DCT ULVAN DCT ADOPI
Aircraft A321/M-SDE3FGHIRWY/LB1

Departure

Time 2026-05-01 10:26
Airport Bergen Airport, Flesland (ENBR)

Arrival

Time N/A
Airport Oslo-Gardermoen International Airport (ENGM)
Time Latitude Longitude Altitude Speed Heading
2026-05-01 10:09 60.28568 5.22658 170 ft 0 kts 82°
2026-05-01 10:18 60.28568 5.22649 170 ft 2 kts 81°
2026-05-01 10:18 60.28565 5.22616 170 ft 2 kts 80°
2026-05-01 10:19 60.28562 5.22584 170 ft 2 kts 78°
2026-05-01 10:19 60.28558 5.22553 170 ft 2 kts 69°
2026-05-01 10:19 60.28549 5.22526 169 ft 2 kts 14°
2026-05-01 10:20 60.28539 5.22525 169 ft 0 kts 351°
2026-05-01 10:20 60.28551 5.22522 169 ft 9 kts 351°
2026-05-01 10:21 60.28650 5.22482 173 ft 16 kts 355°
2026-05-01 10:21 60.28727 5.22339 172 ft 13 kts 349°
2026-05-01 10:21 60.28878 5.22292 174 ft 29 kts 350°
2026-05-01 10:22 60.29272 5.22163 169 ft 31 kts 351°
2026-05-01 10:22 60.29711 5.22008 153 ft 31 kts 350°
2026-05-01 10:23 60.29925 5.21936 158 ft 30 kts 350°
2026-05-01 10:23 60.30307 5.21812 174 ft 25 kts 351°
2026-05-01 10:23 60.30470 5.21758 182 ft 23 kts 352°
2026-05-01 10:24 60.30668 5.21570 182 ft 0 kts 275°
2026-05-01 10:24 60.30667 5.21557 182 ft 5 kts 259°
2026-05-01 10:25 60.30472 5.21435 178 ft 20 kts 169°
2026-05-01 10:25 60.30440 5.21447 178 ft 14 kts 169°
2026-05-01 10:26 60.29992 5.21604 160 ft 117 kts 170°
2026-05-01 10:26 60.28885 5.21957 260 ft 194 kts 171°
2026-05-01 10:26 60.26013 5.23161 2135 ft 231 kts 155°
2026-05-01 10:27 60.24567 5.28948 4508 ft 259 kts 93°
2026-05-01 10:27 60.24057 5.36409 7153 ft 279 kts 103°
2026-05-01 10:28 60.23514 5.40211 8527 ft 287 kts 109°
2026-05-01 10:28 60.23561 5.48113 10564 ft 329 kts 59°
2026-05-01 10:28 60.24805 5.52342 10821 ft 372 kts 59°
2026-05-01 10:29 60.27436 5.62106 12833 ft 379 kts 63°
2026-05-01 10:29 60.28572 5.66566 15660 ft 337 kts 63°
2026-05-01 10:30 60.30484 5.74115 19677 ft 288 kts 63°
2026-05-01 10:30 60.32592 5.82441 19100 ft 379 kts 63°
2026-05-01 10:31 60.35227 5.92838 18541 ft 450 kts 63°
2026-05-01 10:31 60.38045 6.04317 20060 ft 451 kts 64°
2026-05-01 10:32 60.40461 6.15771 21391 ft 453 kts 83°
2026-05-01 10:32 60.40706 6.22370 20964 ft 476 kts 85°
2026-05-01 10:32 60.41220 6.35777 22042 ft 467 kts 83°
2026-05-01 10:33 60.43152 6.48515 22242 ft 483 kts 81°
2026-05-01 10:33 60.43458 6.62023 23668 ft 475 kts 89°
2026-05-01 10:34 60.43510 6.68680 24565 ft 470 kts 89°
2026-05-01 10:34 60.43561 6.75268 25446 ft 466 kts 89°
2026-05-01 10:34 60.43612 6.81819 26083 ft 465 kts 89°
2026-05-01 10:35 60.42384 6.94410 24805 ft 490 kts 126°
2026-05-01 10:35 60.39980 6.99498 24445 ft 467 kts 134°
2026-05-01 10:35 60.38482 7.04515 25045 ft 384 kts 105°
2026-05-01 10:35 60.38561 7.09647 23784 ft 358 kts 90°
2026-05-01 10:36 60.37171 7.18825 21246 ft 328 kts 110°
2026-05-01 10:36 60.36571 7.23147 20537 ft 311 kts 104°
2026-05-01 10:36 60.36118 7.27301 19829 ft 296 kts 101°
2026-05-01 10:37 60.35771 7.31260 19180 ft 287 kts 97°
2026-05-01 10:37 60.36630 7.39439 17168 ft 310 kts 69°